Starlink 11177

operational
NORAD ID: 60118 Int'l Des: 2024-118 Owner: SPXS Country: US Constellation: starlink
LEOCIRCULAR

Starlink 11177について

説明を読み込み中...

リアルタイム位置

3D地球を読み込み中...

次回通過

高度履歴

Altitude vs Time

uPlot chart will show altitude changes over time

軌道要素

1 60118U 24118F 25306.48319946 .00004398 00000-0 41154-4 0 9995
2 60118 53.1586 128.3783 0001432 73.6120 286.5055 15.69705605 78018
Epoch: Nov 2, 2025 • Age: 25 hours

現在のステータス

高度 365.0 km
速度 7.69 km/s
衛星直下点 -17.41°S, 80.13°E
打ち上げ日 Jun 24, 2024
運用期間 1.3 years
タイプ internet

技術仕様

分類 Payload
質量 960.00 kg
乾燥質量 910.00 kg
総質量 960.00 kg
長さ 0.30 m
直径 4.10 m
スパン 29.00 m
形状 Box + pan
製造者 SPXS
バスタイプ Starlink V2MD
フェーズステータス In Orbit
所有者/国 SPXS/US

大規模コンステレーション

Loading constellations...